Location: Unspecified
(0.0000°N, 0.0000°E)
Time: 04:20:19
(UTC+00:00)

Vanguard 1 - Pass Details

Date: 11 December 2023
Orbit: 653 x 3826 km, 34.3° (Epoch: 22 February)

Event Time Altitude Azimuth Distance (km) Brightness Sun altitude
Rises 01:52:06 0° 295° (WNW) 7,934 - -53.0°
Reaches altitude 10° 01:58:05 10° 291° (WNW) 6,760 - -51.9°
Maximum altitude 02:18:01 50° 221° (SW) 3,268 - -47.9°
Exits shadow 02:19:03 49° 212° (SSW) 3,203 12.4 -47.7°
Drops below altitude 10° 02:29:59 10° 148° (SSE) 4,216 13.8 -45.5°
Sets 02:32:48 0° 142° (SE) 4,867 14.3 -44.9°
